Regional Weather Roundup
Issued by NWS

Home | Current Version | Previous Version | Graphics & Text | Print | Product List | Glossary On
Versions: 1 2 3 4 5 6 7 8 9 10 11 12 13 14 15 16 17 18 19 20 21 22 23 24 25 26 27 28 29 30 31 32 33 34 35 36 37 38 39 40 41 42 43 44 45 46 47 48 49 50
097
ASUS43 KTOP 180159
RWRKS

WEATHER ROUNDUP FOR KANSAS
NATIONAL WEATHER SERVICE GOODLAND KS
800 PM CST SUN DEC 17 2017

NOTE:  "FAIR" INDICATES FEW OR NO CLOUDS BELOW 12,000 FEET WITH NO
SIGNIFICANT WEATHER AND/OR OBSTRUCTIONS TO VISIBILITY.

KSZ001>006-013>018-027>032-041>047-180300-
NORTHWEST KANSAS

CITY           SKY/WX    TMP DP  RH WIND       PRES   REMARKS
GOODLAND       CLOUDY    27  21  78 SW7       29.98R
HAYS           CLOUDY    32  26  78 NW5       30.04R
HILL CITY      CLOUDY    26  23  88 W3        30.03R
RUSSELL        CLOUDY    32  28  85 NW7       30.01R
$$

KSZ061>065-074>080-084>089-180300-
SOUTHWEST KANSAS

CITY           SKY/WX    TMP DP  RH WIND       PRES   REMARKS
DODGE CITY     CLOUDY    30  23  75 CALM      30.02S
GARDEN CITY    CLOUDY    32  25  75 CALM      30.02R
GREAT BEND     CLOUDY    27  21  78 NW7       30.02S
LIBERAL        CLOUDY    27  21  78 W3        30.03S
$$

KSZ066>073-081>083-090>101-180300-
SOUTHEAST KANSAS

CITY           SKY/WX    TMP DP  RH WIND       PRES   REMARKS
CHANUTE        CLOUDY    45  43  93 S7        30.06S
COFFEYVILLE    CLOUDY    45  43  93 S7        30.08R
HUTCHINSON     CLEAR     37  36  96 CALM      30.01S
MEDICINE LODGE   N/A     39  35  86 CALM      30.03R
NEWTON         MOCLDY    37  35  92 S7        30.03S
PARSONS        CLOUDY    45  44  97 S3        30.08R
WICHITA INTL   PTCLDY    38  37  97 S6        30.02F
WICHITA JABRA  PTCLDY    42  39  89 S9        30.02F
WICHITA MCCONL CLOUDY    43  38  81 SW7       30.03S
WINFIELD       CLOUDY    45  44  97 S8        30.06R
$$

KSZ007>012-019>026-033>040-048>060-102>105-180300-
NORTHEAST KANSAS

CITY           SKY/WX    TMP DP  RH WIND       PRES   REMARKS
CONCORDIA      CLOUDY    35  29  78 NW5       30.01R
EMPORIA        CLEAR     41  38  89 S8        30.02R
LAWRENCE       CLEAR     44  42  93 S6        30.02S
MANHATTAN      CLOUDY    44  36  73 NE5       30.01R
OLATHE IND     CLEAR     40  40 100 S6        30.03S FOG
OLATHE EXE     PTCLDY    40  40 100 S5        30.02S
SALINA         CLOUDY    41  33  73 S5        30.02R
TOPEKA BILLARD CLOUDY    47  44  90 S9        30.00S
TOPEKA FORBES  MOCLDY    46  42  86 S9        30.01R
$$




USA.gov is the U.S. government's official web portal to all federal, state and local government web resources and services.